Weather in Novospassk

Russia / Amur Oblast     49°39′09″N   129°47′02″E
temp.,
°C
wind,
m/s
gust,
m/s
humid.,
%
clouds,
%
prec.,
mm/h
press.,
hPa
HPBL,
m
14 june, mon
mon1400:00+17ne33658 0.0 100823
03:00+15sse36925 0.0 100894
06:00+16se41093100 0.0 1008308
09:00+21sse7107443 0.0 1008637
12:00+24sse796418 0.0 1007946
15:00+26sse79615 0.0 10051181
18:00+22sse71370100 0.0 1004462
21:00+21sse61463100 0.0 1004523
15 june, tue
tue1500:00+19se61473100 0.0 1005512
03:00+17se61574100 0.0 1004542
06:00+17se6157195 0.0 1004570
09:00+19sse71567100 0.0 1004769
12:00+21sse71262100 0.0 1003859
15:00+22sse71269100 0.1 1002587
18:00+23sse71371100 0.1 1001513
21:00+18wnw1293100 1.8 100324
16 june, wed
wed1600:00+17se1193100 0.1 100321
03:00+17s1193100 0.1 100313
06:00+16ese2297100 1.0 100483
09:00+18sse2595100 1.2 1004291
12:00+18sse3696100 0.4 1004322
15:00+22s238260 0.4 1004711
18:00+23ne0176100 0.3 1003670
21:00+19e2290100 0.4 100229
17 june, thu
thu1700:00+18ese2294100 0.0 100136
03:00+17ese3595100 0.0 998120
06:00+19se51294100 1.7 997404
09:00+19se81392100 3.8 997563
12:00+20se91588100 1.4 995708
15:00+19sse91592100 5.2 995744
18:00+18sse71593100 6.4 994809
21:00+17se91596100 11.5 995582
18 june, fri
fri1800:00+17se61297100 4.3 993682
03:00+16ese81595100 6.2 992589
06:00+14se101990100 2.8 992762
09:00+14se71397100 5.5 994716
12:00+14se61296100 3.7 996647
15:00+18se9128653 5.4 9971105
18:00+19se6108352 0.8 997944
21:00+16ese61287100 0.9 998444